Location: A�t Lahcen
(32.8243°N, 5.4246°W)
Time: 01:59:46
(UTC+00:00)

Cosmos 1626 Rocket - Pass Details

Date: 27 January 2021
Orbit: 603 x 631 km, 82.5° (Epoch: 27 February)

Event Time Altitude Azimuth Distance (km) Brightness Sun altitude
Exits shadow 05:37:42 19° 352° (N) 1,520 5.4 -21.5°
Maximum altitude 05:40:55 85° 266° (W) 635 3.4 -20.8°
Drops below altitude 10° 05:45:20 10° 177° (S) 1,989 6.3 -19.9°
Sets 05:47:33 0° 176° (S) 2,888 7.2 -19.5°
